Date String (YYYY-MM-DD hh:mm:ss) UTC,Instrument flags,Ambient pressure (hPa),Sample flow (lpm),Bypass flow (lpm),Sample temperature (°C),Ambient temperature (°C),ASC tube jacket temperature (°C),LED temperature (°C),Box temperature (°C),Sample RH (%),Span deviation,Mass concentration (μg/m³),Mass concentration (μg/m³),Mass concentration (μg/m³)
DateTimeUTC,F1_M11,P_M11,Q1_M11,Q2_M11,T1_M11,T2_M11,T3_M11,T4_M11,T5_M11,U1_M11,ZSPAN_M11,X0_M11,X2_M11,X1_M11
2022-10-14 01:00:00,,0827.9,5.00,0.00,29.7,28.3,00.0,38.5,31.6,13.8,0001.0,0018.43,0007.96,0006.79
2022-10-14 01:01:00,,0827.9,5.00,0.00,29.7,28.3,00.0,38.5,31.6,13.7,0001.4,0019.08,0008.00,0006.78
2022-10-14 01:02:00,,0827.8,5.01,0.00,29.7,28.4,00.0,38.5,31.6,13.7,0001.3,0019.35,0008.03,0006.77
2022-10-14 01:03:00,,0827.9,5.00,0.00,29.7,28.4,00.0,38.5,31.6,13.6,0001.5,0018.47,0007.99,0006.77
2022-10-14 01:04:00,,0827.9,5.00,0.00,29.8,28.3,00.0,38.6,31.6,13.6,0001.8,0018.49,0007.98,0006.79
2022-10-14 01:05:00,,0827.9,5.00,0.00,29.8,28.3,00.0,38.6,31.6,13.6,0001.5,0018.52,0008.02,0006.82
2022-10-14 01:06:00,,0827.9,5.00,0.00,29.7,28.2,00.0,38.6,31.6,13.6,0001.4,0018.49,0008.07,0006.83
2022-10-14 01:07:00,,0827.9,5.00,0.00,29.7,28.2,00.0,38.6,31.6,13.6,0001.5,0019.36,0008.13,0006.83
2022-10-14 01:08:00,,0827.9,5.00,0.00,29.8,28.2,00.0,38.6,31.6,13.6,0000.9,0020.51,0008.19,0006.83
2022-10-14 01:09:00,,0827.9,5.00,0.00,29.8,28.2,00.0,38.6,31.6,13.5,0000.9,0020.85,0008.19,0006.83
2022-10-14 01:10:00,,0827.9,5.00,0.00,29.8,28.3,00.0,38.6,31.6,13.5,0001.1,0019.99,0008.09,0006.81
2022-10-14 01:11:00,,0827.9,5.00,0.00,29.8,28.3,00.0,38.6,31.6,13.5,0001.3,0018.73,0008.06,0006.77
2022-10-14 01:12:00,,0827.9,5.00,0.00,29.8,28.3,00.0,38.6,31.6,13.5,0001.3,0018.05,0007.98,0006.72
2022-10-14 01:13:00,,0827.9,5.00,0.00,29.8,28.3,00.0,38.6,31.7,13.4,0001.4,0018.27,0007.86,0006.67
2022-10-14 01:14:00,,0827.9,5.00,0.00,29.8,28.4,00.0,38.6,31.7,13.4,0000.9,0018.78,0007.85,0006.64
2022-10-14 01:15:00,,0827.9,5.00,0.00,29.8,28.4,00.0,38.6,31.7,13.4,0000.6,0019.95,0007.84,0006.60
2022-10-14 01:16:00,,0827.9,4.99,0.00,29.8,28.4,00.0,38.6,31.7,13.4,0000.5,0021.14,0007.77,0006.55
2022-10-14 01:17:00,,0827.9,5.00,0.00,29.8,28.4,00.0,38.6,31.7,13.5,0000.6,0020.87,0007.65,0006.49
2022-10-14 01:18:00,,0827.9,5.00,0.00,29.8,28.4,00.0,38.6,31.7,13.5,0000.6,0020.14,0007.53,0006.45
2022-10-14 01:19:00,,0827.9,5.02,0.00,29.8,28.4,00.0,38.6,31.7,13.6,0001.1,0019.06,0007.47,0006.41
2022-10-14 01:20:00,,0827.9,5.00,0.00,29.8,28.4,00.0,38.6,31.7,13.6,0001.0,0018.71,0007.46,0006.38
2022-10-14 01:21:00,,0827.9,5.00,0.00,29.9,28.4,00.0,38.6,31.7,13.6,0000.9,0018.43,0007.46,0006.36
2022-10-14 01:22:00,,0828.0,5.01,0.00,29.9,28.4,00.0,38.7,31.7,13.6,0000.5,0018.58,0007.44,0006.35
2022-10-14 01:23:00,,0828.0,5.00,0.00,29.9,28.4,00.0,38.7,31.7,13.6,0000.8,0018.93,0007.48,0006.35
2022-10-14 01:24:00,,0828.0,4.98,0.00,29.9,28.4,00.0,38.7,31.7,13.6,0000.9,0018.92,0007.51,0006.35
2022-10-14 01:25:00,,0828.0,4.99,0.00,29.9,28.5,00.0,38.7,31.7,13.6,0001.6,0018.82,0007.47,0006.32
2022-10-14 01:26:00,,0828.0,5.01,0.00,29.9,28.5,00.0,38.7,31.7,13.5,0002.4,0018.06,0007.48,0006.31
2022-10-14 01:27:00,,0828.0,5.01,0.00,29.9,28.5,00.0,38.7,31.7,13.5,0002.0,0018.00,0007.46,0006.29
2022-10-14 01:28:00,,0827.9,5.01,0.00,29.9,28.5,00.0,38.7,31.7,13.5,0001.7,0018.38,0007.49,0006.29
2022-10-14 01:29:00,,0828.0,4.98,0.00,29.9,28.5,00.0,38.7,31.7,13.5,0001.8,0019.20,0007.52,0006.29
2022-10-14 01:30:00,,0828.0,5.01,0.00,29.9,28.5,00.0,38.7,31.7,13.5,0002.0,0020.16,0007.55,0006.29
2022-10-14 01:31:00,,0827.9,5.02,0.00,29.9,28.5,00.0,38.7,31.7,13.4,0002.2,0021.73,0007.52,0006.29
2022-10-14 01:32:00,,0827.9,5.00,0.00,29.9,28.5,00.0,38.7,31.8,13.4,0002.0,0022.25,0007.55,0006.29
2022-10-14 01:33:00,,0828.0,5.00,0.00,29.9,28.5,00.0,38.7,31.8,13.4,0000.0,0022.21,0007.56,0006.30
2022-10-14 01:34:00,,0827.9,5.00,0.00,29.9,28.4,00.0,38.7,31.7,13.4,0002.7,0022.00,0007.52,0006.31
2022-10-14 01:35:00,,0827.9,5.00,0.00,29.9,28.4,00.0,38.7,31.7,13.4,0003.0,0021.79,0007.53,0006.32
2022-10-14 01:36:00,,0827.9,5.00,0.00,29.9,28.4,00.0,38.7,31.8,13.5,0002.7,0024.65,0007.55,0006.32
2022-10-14 01:37:00,,0827.9,5.00,0.00,29.9,28.4,00.0,38.7,31.7,13.4,0002.8,0024.63,0007.52,0006.32
2022-10-14 01:38:00,,0827.9,5.00,0.00,29.9,28.4,00.0,38.7,31.7,13.4,0002.2,0023.69,0007.58,0006.33
2022-10-14 01:39:00,,0827.9,5.00,0.00,29.9,28.4,00.0,38.7,31.7,13.3,0000.0,0022.67,0007.55,0006.31
2022-10-14 01:40:00,,0827.9,5.00,0.00,29.9,28.4,00.0,38.7,31.7,13.3,0000.0,0022.04,0007.48,0006.30
2022-10-14 01:41:00,,0827.9,5.00,0.00,29.9,28.4,00.0,38.7,31.7,13.2,0000.0,0020.92,0007.43,0006.31
2022-10-14 01:42:00,,0827.9,5.00,0.00,29.9,28.4,00.0,38.7,31.7,13.2,0000.0,0019.40,0007.44,0006.34
2022-10-14 01:43:00,,0827.9,5.00,0.00,29.9,28.4,00.0,38.7,31.7,13.1,0000.0,0019.02,0007.49,0006.40
2022-10-14 01:44:00,,0827.9,5.00,0.00,29.9,28.4,00.0,38.7,31.7,13.1,0000.3,0019.07,0007.55,0006.47
2022-10-14 01:45:00,,0827.9,5.00,0.00,29.9,28.3,00.0,38.8,31.7,13.1,0000.8,0019.09,0007.62,0006.54
2022-10-14 01:46:00,,0828.0,4.99,0.00,29.9,28.4,00.0,38.8,31.7,13.1,0000.0,0019.34,0007.72,0006.63
2022-10-14 01:47:00,,0827.9,5.00,0.00,29.9,28.4,00.0,38.7,31.7,13.1,0000.6,0016.22,0007.81,0006.71
2022-10-14 01:48:00,,0827.9,5.02,0.00,29.9,28.3,00.0,38.8,31.7,13.1,0001.9,0015.95,0007.88,0006.79
2022-10-14 01:49:00,,0827.9,5.00,0.00,29.9,28.3,00.0,38.8,31.7,13.0,0003.4,0016.05,0007.93,0006.88
2022-10-14 01:50:00,,0827.9,5.00,0.00,29.9,28.3,00.0,38.8,31.7,13.0,0003.5,0017.42,0008.00,0006.97
2022-10-14 01:51:00,,0827.9,5.00,0.00,29.9,28.3,00.0,38.8,31.7,13.1,0003.9,0016.86,0008.11,0007.06
2022-10-14 01:52:00,,0827.9,5.00,0.00,29.9,28.4,00.0,38.8,31.7,13.1,0003.7,0017.13,0008.24,0007.12
2022-10-14 01:53:00,,0827.9,5.00,0.00,29.9,28.3,00.0,38.7,31.7,13.0,0003.7,0018.44,0008.33,0007.18
2022-10-14 01:54:00,,0827.9,5.00,0.00,29.9,28.3,00.0,38.7,31.7,13.0,0003.2,0020.25,0008.38,0007.20
2022-10-14 01:55:00,,0827.9,5.00,0.00,29.9,28.3,00.0,38.7,31.7,13.0,0003.2,0020.44,0008.33,0007.19
2022-10-14 01:56:00,,0827.9,5.00,0.00,29.9,28.3,00.0,38.7,31.7,13.1,0003.3,0020.68,0008.30,0007.16
2022-10-14 01:57:00,,0827.9,5.00,0.00,29.9,28.3,00.0,38.7,31.7,13.0,0003.0,0021.73,0008.33,0007.15
2022-10-14 01:58:00,,0827.9,5.00,0.00,29.9,28.3,00.0,38.7,31.6,13.0,0002.5,0023.40,0008.33,0007.16
2022-10-14 01:59:00,,0827.9,5.00,0.00,29.9,28.3,00.0,38.7,31.7,13.0,0001.8,0024.02,0008.31,0007.13
